This demonstration page uses our WeatherBlox Daily Observations layout. Learn more.

36.17497, -115.13722

Hourly Observations for July 6, 2015

Temp ( °F °C ) Dew Point ( °F °C ) Humidity (%) Winds ( mph kmh ) Pressure ( in mb ) Visibility ( mi km ) Precip ( " mm )
12:53 am 00:53 Clear 87 30.6 50 10 28 28 WNW 13 20 29.88 1012 10 16.0934 0 0
1:53 am 01:53 Clear 85 29.4 54 12.2 35 35 SW 8 13 29.89 1012 10 16.0934 0 0
2:53 am 02:53 Clear 85 29.4 54 12.2 35 35 NE 5 7 29.9 1012 10 16.0934 0 0
3:53 am 03:53 Clear 84 28.9 55 12.8 37 37 S 7 11 29.91 1013 10 16.0934 0 0
4:53 am 04:53 Cloudy with Light Rain 84 28.9 55 12.8 37 37 ENE 5 7 29.92 1013 10 16.0934 0 0.0254
5:53 am 05:53 Mostly Sunny 84 28.9 55 12.8 37 37 NE 7 11 29.93 1014 10 16.0934 0 0.0254
6:53 am 06:53 Sunny 83 28.3 59 15 44 44 ESE 9 15 29.95 1014 10 16.0934 0 0
7:53 am 07:53 Sunny 83 28.3 59 15 44 44 ESE 6 9 29.97 1015 10 16.0934 0 0
8:53 am 08:53 Sunny 84 28.9 59 15 43 43 ESE 7 11 29.98 1015 10 16.0934 0 0
9:53 am 09:53 Sunny 85 29.4 58 14.4 40 40 E 3 6 29.99 1016 10 16.0934 0 0
10:53 am 10:53 Sunny 88 31.1 57 13.9 35 35 ESE 6 9 29.98 1015 10 16.0934 0 0
11:53 am 11:53 Sunny 91 32.8 56 13.3 31 31 Calm 29.97 1015 10 16.0934 0 0
12:53 pm 12:53 Sunny 92 33.3 56 13.3 30 30 Calm 29.94 1014 10 16.0934 0 0
1:53 pm 13:53 Sunny 96 35.6 55 12.8 25 25 Calm 29.91 1013 10 16.0934 0 0
2:53 pm 14:53 Sunny 98 36.7 52 11.1 21 21 undefined N/A 29.89 1012 10 16.0934 0 0
3:53 pm 15:53 Sunny 98 36.7 50 10 20 20 SE 8 13 29.86 1011 10 16.0934 0 0
4:53 pm 16:53 Sunny 98 36.7 50 10 20 20 ESE 12 19 29.85 1011 10 16.0934 0 0
5:53 pm 17:53 Mostly Sunny 96 35.6 52 11.1 23 23 SE 6 9 29.85 1011 10 16.0934 0 0
6:41 pm 18:41 Cloudy with Light Rain 86 30 58 14.4 39 39 WNW 26 43 29.77 1008 10 16.0934 0 0.0254
6:53 pm 18:53 Cloudy with Light Rain 79 26.1 64 17.8 60 60 SW 13 20 29.93 1014 8 12.87472 0 0.0254
6:55 pm 18:55 Mostly Cloudy with Rain 78 25.6 65 18.3 64 64 SW 20 31 29.83 1010 1.75 2.816345 0 0.0254
7:10 pm 19:10 Partly Cloudy with Light Rain 75 24 64 18 69 69 SW 12 19 29.85 1011 10 16.0934 0 0
7:53 pm 19:53 Mostly Sunny 77 25 64 17.8 64 64 SW 15 24 29.91 1013 10 16.0934 0 0.0254
8:53 pm 20:53 Mostly Cloudy with Light Rain 80 26.7 63 17.2 56 56 NW 5 7 29.93 1014 10 16.0934 0 0.0254
9:53 pm 21:53 Partly Cloudy 80 26.7 63 17.2 56 56 NNW 7 11 29.93 1014 10 16.0934 0 0.0254
10:53 pm 22:53 Mostly Clear 80 26.7 62 16.7 54 54 Calm 29.93 1014 10 16.0934 0 0
11:53 pm 23:53 Clear 80 26.7 64 17.8 58 58 Calm 29.93 1013 10 16.0934 0 0

Powered by AerisWeather